Weather in Placencia

Belize     16°31′08″N   88°22′09″W
temp.,
°C
wind,
m/s
gust,
m/s
humid.,
%
clouds,
%
prec.,
mm/h
press.,
hPa
HPBL,
m
25 july, sun
sun2500:00+28ese437294 0.0 1014734
03:00+27s237367 0.0 1013576
06:00+26wnw328317 0.0 1013222
09:00+27nnw228099 0.0 1015250
12:00+28ene33725 0.0 1014351
15:00+28e65725 0.0 1012560
18:00+29ene44675 0.0 1012605
21:00+29e33685 0.0 1013626
26 july, mon
mon2600:00+28se44705 0.0 1013770
03:00+27ssw227383 0.0 1011555
06:00+26nw228011 0.0 1012206
09:00+26n227947 0.0 1014267
12:00+28e327254 0.0 1013540
15:00+28ene44714 0.0 1011492
18:00+29ene66740 0.0 1011721
21:00+28e66744 0.0 1013976
27 july, tue
tue2700:00+28ese557432 0.1 1013793
03:00+28e337413 0.1 1012866
06:00+28ene337626 0.4 1013520
09:00+28ne34755 1.8 1015527
12:00+29ne56737 2.4 1014898
15:00+29ne787497 0.1 1012909
18:00+29ne897673 0.1 1013958
21:00+28ne787679 1.8 1014974
28 july, wed
wed2800:00+28ene677787 2.6 1013811
03:00+28ene3475100 2.6 1011756
06:00+28ene777630 3.4 1012868
09:00+28ese667768 0.9 1014727
12:00+28ene457790 1.7 1013600
15:00+29ene8975100 0.2 1011975
18:00+28e9117618 2.0 10121121
21:00+29e9117795 5.0 10131063
29 july, thu
thu2900:00+29ene91179100 7.5 10131005
03:00+29e9977100 1.9 10121105
06:00+29e7874100 2.0 10121051
09:00+28e6774100 0.0 10141016
12:00+29e677384 0.1 1014959
15:00+29ne6774100 0.0 1013944
18:00+28ne787892 0.4 1013853
21:00+28ene787798 2.1 1014883